| time (UTC) | temp F | wind direction | speed MPH | gust MPH | rain 1hr in | rain 24hr in | rain mn in | humidity % | barometer mb |
| 20260502231518 | 73 | 304 | 4.0 | 18.0 | 0.00 | 0.00 | 0.00 | 28 | 1007.0 |
| 20260502230024 | 73 | 360 | 3.0 | 12.0 | 0.00 | 0.00 | 0.00 | 29 | 1007.1 |
| 20260502224527 | 74 | 341 | 3.0 | 19.0 | 0.00 | 0.00 | 0.00 | 29 | 1007.1 |
| 20260502223026 | 73 | 263 | 5.0 | 17.0 | 0.00 | 0.00 | 0.00 | 29 | 1007.5 |
| 20260502221522 | 72 | 292 | 2.0 | 7.0 | 0.00 | 0.00 | 0.00 | 27 | 1007.8 |
| 20260502220013 | 72 | 300 | 3.0 | 10.0 | 0.00 | 0.00 | 0.00 | 27 | 1008.0 |
| 20260502214512 | 72 | 355 | 2.0 | 14.0 | 0.00 | 0.00 | 0.00 | 26 | 1008.3 |
| 20260502213027 | 72 | 272 | 11.0 | 19.0 | 0.00 | 0.00 | 0.00 | 24 | 1008.3 |
| 20260502211522 | 73 | 278 | 5.0 | 20.0 | 0.00 | 0.00 | 0.00 | 25 | 1008.5 |
| 20260502210005 | 74 | 252 | 11.0 | 19.0 | 0.00 | 0.00 | 0.00 | 24 | 1008.8 |
| 20260502204514 | 72 | 253 | 8.0 | 19.0 | 0.00 | 0.00 | 0.00 | 25 | 1009.0 |
| 20260502203018 | 71 | 234 | 7.0 | 21.0 | 0.00 | 0.00 | 0.00 | 25 | 1009.4 |
| 20260502201536 | 71 | 256 | 12.0 | 22.0 | 0.00 | 0.00 | 0.00 | 24 | 1009.6 |
| 20260502200007 | 70 | 256 | 11.0 | 25.0 | 0.00 | 0.00 | 0.00 | 23 | 1010.0 |
| 20260502194532 | 71 | 259 | 11.0 | 20.0 | 0.00 | 0.00 | 0.00 | 24 | 1010.3 |
| 20260502193022 | 71 | 246 | 9.0 | 25.0 | 0.00 | 0.00 | 0.00 | 26 | 1010.6 |
| 20260502191536 | 69 | 246 | 9.0 | 26.0 | 0.00 | 0.00 | 0.00 | 27 | 1010.8 |
| 20260502190028 | 69 | 264 | 12.0 | 20.0 | 0.00 | 0.00 | 0.00 | 25 | 1011.1 |
| 20260502184535 | 68 | 228 | 13.0 | 24.0 | 0.00 | 0.00 | 0.00 | 24 | 1011.2 |
| 20260502183020 | 68 | 257 | 12.0 | 24.0 | 0.00 | 0.00 | 0.00 | 21 | 1011.7 |
| 20260502181528 | 68 | 265 | 12.0 | 20.0 | 0.00 | 0.00 | 0.00 | 22 | 1012.3 |
| 20260502163044 | 64 | 257 | 11.0 | 21.0 | 0.00 | 0.00 | 0.00 | 29 | 1014.0 |
| 20260502161510 | 65 | 279 | 9.0 | 24.0 | 0.00 | 0.00 | 0.00 | 32 | 1014.2 |
| 20260502151510 | 62 | 25 | 6.0 | 18.0 | 0.00 | 0.00 | 0.00 | 38 | 1015.0 |
| 20260502123024 | 35 | 240 | 2.0 | 5.0 | 0.00 | 0.00 | 0.00 | 79 | 1016.6 |
| 20260502121512 | 33 | 241 | 2.0 | 5.0 | 0.00 | 0.00 | 0.00 | 79 | 1016.6 |
| 20260502114524 | 33 | 242 | 3.0 | 8.0 | 0.00 | 0.00 | 0.00 | 79 | 1016.5 |
| 20260502113027 | 33 | 242 | 3.0 | 8.0 | 0.00 | 0.00 | 0.00 | 79 | 1016.7 |
| 20260502111516 | 33 | 248 | 3.0 | 7.0 | 0.00 | 0.00 | 0.00 | 79 | 1016.7 |
| 20260502110020 | 33 | 242 | 2.0 | 8.0 | 0.00 | 0.00 | 0.00 | 78 | 1016.9 |
| 20260502104528 | 33 | 244 | 3.0 | 7.0 | 0.00 | 0.00 | 0.00 | 78 | 1017.0 |
| 20260502103026 | 33 | 242 | 2.0 | 7.0 | 0.00 | 0.00 | 0.00 | 77 | 1017.1 |
| 20260502101515 | 33 | 242 | 2.0 | 7.0 | 0.00 | 0.00 | 0.00 | 77 | 1017.3 |
| 20260502091518 | 34 | 240 | 1.0 | 4.0 | 0.00 | 0.00 | 0.00 | 75 | 1017.6 |
| 20260502071523 | 36 | 257 | 2.0 | 4.0 | 0.00 | 0.00 | 0.00 | 68 | 1018.6 |
| 20260502070035 | 37 | 257 | 2.0 | 6.0 | 0.00 | 0.00 | 0.00 | 66 | 1018.8 |
| 20260502064523 | 37 | 257 | 2.0 | 7.0 | 0.00 | 0.00 | 0.00 | 64 | 1018.9 |
| 20260502063018 | 38 | 259 | 2.0 | 4.0 | 0.00 | 0.00 | 0.00 | 63 | 1019.0 |
| 20260502061521 | 39 | 259 | 2.0 | 8.0 | 0.00 | 0.00 | 0.00 | 61 | 1019.2 |
| 20260502060024 | 39 | 254 | 2.0 | 4.0 | 0.00 | 0.00 | 0.00 | 62 | 1019.2 |
| 20260502054515 | 39 | 252 | 2.0 | 5.0 | 0.00 | 0.00 | 0.00 | 62 | 1019.2 |
| 20260502053019 | 40 | 244 | 2.0 | 5.0 | 0.00 | 0.00 | 0.00 | 60 | 1019.1 |
| 20260502051527 | 40 | 244 | 2.0 | 4.0 | 0.00 | 0.00 | 0.00 | 58 | 1019.2 |
| 20260502050031 | 41 | 246 | 0.0 | 5.0 | 0.00 | 0.00 | 0.00 | 56 | 1019.2 |
| 20260502044524 | 43 | 220 | 0.0 | 3.0 | 0.00 | 0.00 | 0.00 | 54 | 1019.1 |
| 20260502043017 | 43 | 219 | 0.0 | 4.0 | 0.00 | 0.00 | 0.00 | 53 | 1019.0 |
| 20260502041523 | 43 | 205 | 2.0 | 5.0 | 0.00 | 0.00 | 0.00 | 55 | 1019.0 |
| 20260502040024 | 43 | 84 | 0.0 | 1.0 | 0.00 | 0.00 | 0.00 | 54 | 1019.4 |
| 20260502034535 | 43 | 84 | 0.0 | 2.0 | 0.00 | 0.00 | 0.00 | 54 | 1019.4 |
| 20260502033018 | 43 | 84 | 0.0 | 0.0 | 0.00 | 0.00 | 0.00 | 53 | 1019.4 |
| 20260502031525 | 44 | 84 | 0.0 | 1.0 | 0.00 | 0.00 | 0.00 | 50 | 1019.4 |
| 20260502030028 | 45 | 84 | 0.0 | 0.0 | 0.00 | 0.00 | 0.00 | 49 | 1019.2 |
| 20260502024526 | 46 | 84 | 0.0 | 1.0 | 0.00 | 0.00 | 0.00 | 46 | 1019.2 |
| 20260502023020 | 48 | 84 | 0.0 | 1.0 | 0.00 | 0.00 | 0.00 | 44 | 1019.0 |
| 20260502021525 | 49 | 84 | 0.0 | 3.0 | 0.00 | 0.00 | 0.00 | 42 | 1018.8 |
| 20260502020026 | 50 | 84 | 0.0 | 2.0 | 0.00 | 0.00 | 0.00 | 40 | 1018.7 |
| 20260502014546 | 52 | 84 | 0.0 | 2.0 | 0.00 | 0.00 | 0.00 | 39 | 1018.4 |
| 20260502013023 | 53 | 84 | 0.0 | 2.0 | 0.00 | 0.00 | 0.00 | 38 | 1018.5 |
| 20260502011508 | 54 | 84 | 0.0 | 4.0 | 0.00 | 0.00 | 0.00 | 37 | 1018.6 |
| 20260502010011 | 55 | 82 | 0.0 | 5.0 | 0.00 | 0.00 | 0.00 | 33 | 1018.5 |
| 20260502004520 | 55 | 81 | 1.0 | 5.0 | 0.00 | 0.00 | 0.00 | 32 | 1018.5 |
| 20260502003022 | 55 | 76 | 2.0 | 9.0 | 0.00 | 0.00 | 0.00 | 32 | 1018.5 |
| 20260502001528 | 56 | 66 | 0.0 | 9.0 | 0.00 | 0.00 | 0.00 | 31 | 1018.4 |
| 20260502000035 | 56 | 35 | 3.0 | 7.0 | 0.00 | 0.00 | 0.00 | 31 | 1018.5 |
| 20260501234519 | 57 | 55 | 2.0 | 8.0 | 0.00 | 0.00 | 0.00 | 31 | 1018.5 |
| 20260501233026 | 57 | 71 | 0.0 | 8.0 | 0.00 | 0.00 | 0.00 | 31 | 1018.6 |